Weather History for Fort Myers Airport, FL

Change the Weather History Date:

Thursday, December 6, 2012

  Actual Average Record
Temperature  
Mean Temperature 70 °F -  
Max Temperature 79 °F 78 °F 87 °F (1978)
Min Temperature 60 °F 56 °F 41 °F (1957)
Cooling Degree Days 4    
Growing Degree Days 20 (Base 50)    
Moisture  
Dew Point 62 °F    
Average Humidity 79    
Maximum Humidity 97    
Minimum Humidity 56    
Precipitation  
Precipitation 0.00 in - - ()
Sea Level Pressure  
Sea Level Pressure 29.97 in    
Wind  
Wind Speed 4 mph (ENE)    
Max Wind Speed 9 mph    
Max Gust Speed -    
Visibility 10 miles    
Events Rain    
Averages and records for this station are not official NWS values.
T = Trace of Precipitation, MM = Missing Value Source: NWS Daily Summary

Daily Weather History Graph

Daily Weather History Graph

Search for Another Location

Airport:

Trip Planner

Search our weather history database for the weather conditions in past years. The results will help you decide how hot, cold, wet, or windy it might be!

Date:

Astronomy

Dec. 06, 2012 Rise Set
Actual Time 7:02 AM EST 5:34 PM EST
Civil Twilight 6:36 AM EST 5:59 PM EST
Nautical Twilight 6:08 AM EST 6:28 PM EST
Astronomical Twilight 5:39 AM EST 6:56 PM EST
Moon No Moon Rise 12:25 PM EST (12/6)
Length of Visible Light 11h 22m
Length of Day
10h 32m
Waning Gibbous, 49% of the Moon is Illuminated
Dec 6
Waning Gibbous
Dec 13
New
Dec 20
First Quarter
Dec 28
Full
Jan 4
Last Quarter

Hourly Weather History & Observations

Time (EST) Temp. Dew Point Humidity Pressure Visibility Wind Dir Wind Speed Gust Speed Precip Events Conditions
12:53 AM 64.0 °F 61.0 °F 90% 30.03 in 10.0 mi NNE 3.5 mph - N/A   Mostly Cloudy
1:53 AM 63.0 °F 60.1 °F 90% 30.01 in 10.0 mi East 3.5 mph - N/A   Scattered Clouds
2:53 AM 62.1 °F 60.1 °F 93% 29.99 in 10.0 mi NE 3.5 mph - N/A   Clear
3:53 AM 62.1 °F 59.0 °F 90% 29.98 in 10.0 mi Calm Calm - N/A   Partly Cloudy
4:53 AM 61.0 °F 60.1 °F 97% 29.98 in 10.0 mi NE 4.6 mph - N/A   Clear
5:53 AM 61.0 °F 60.1 °F 97% 29.99 in 10.0 mi ENE 4.6 mph - N/A   Clear
6:53 AM 60.1 °F 59.0 °F 96% 30.00 in 10.0 mi NE 4.6 mph - N/A   Mostly Cloudy
7:53 AM 61.0 °F 59.0 °F 93% 30.02 in 10.0 mi NE 5.8 mph - N/A   Scattered Clouds
8:53 AM 66.9 °F 61.0 °F 81% 30.01 in 10.0 mi East 8.1 mph - N/A   Clear
9:53 AM 73.0 °F 63.0 °F 71% 30.02 in 10.0 mi East 8.1 mph - N/A   Clear
10:53 AM 75.0 °F 63.0 °F 66% 30.00 in 10.0 mi East 9.2 mph - N/A   Scattered Clouds
11:53 AM 75.0 °F 63.0 °F 66% 29.99 in 10.0 mi ENE 8.1 mph - N/A   Clear
12:53 PM 78.1 °F 63.0 °F 60% 29.95 in 10.0 mi ENE 5.8 mph - N/A   Clear
1:53 PM 77.0 °F 62.1 °F 60% 29.93 in 10.0 mi NE 9.2 mph - N/A   Overcast
2:53 PM 79.0 °F 62.1 °F 56% 29.91 in 10.0 mi NE 5.8 mph - N/A   Overcast
3:53 PM 78.1 °F 61.0 °F 56% 29.91 in 10.0 mi NE 5.8 mph - N/A   Partly Cloudy
4:53 PM 77.0 °F 61.0 °F 58% 29.92 in 10.0 mi NNE 5.8 mph - N/A   Overcast
5:53 PM 73.9 °F 62.1 °F 66% 29.93 in 10.0 mi ENE 3.5 mph - N/A   Overcast
6:53 PM 72.0 °F 63.0 °F 73% 29.94 in 10.0 mi ENE 4.6 mph - 0.00 in   Overcast
7:53 PM 71.1 °F 64.9 °F 81% 29.96 in 10.0 mi Calm Calm - 0.00 in Rain Light Rain
8:53 PM 69.1 °F 64.9 °F 87% 29.96 in 10.0 mi ESE 3.5 mph - N/A   Overcast
9:53 PM 68.0 °F 64.0 °F 87% 29.97 in 10.0 mi ESE 4.6 mph - N/A   Overcast
10:53 PM 66.0 °F 63.0 °F 90% 29.95 in 10.0 mi Calm Calm - N/A   Clear
11:53 PM 64.0 °F 62.1 °F 93% 29.94 in 10.0 mi NE 3.5 mph - N/A   Clear